Weather History for George, South Africa

Change the Weather History Date:

Wednesday, August 14, 2013

  Actual Average Record
Temperature  
Mean Temperature 53 °F -  
Max Temperature 60 °F 64 °F 77 °F (2010)
Min Temperature 46 °F 46 °F 41 °F (2005)
Degree Days  
Heating Degree Days 12    
Growing Degree Days 3 (Base 50)    
Moisture  
Dew Point 42 °F    
Average Humidity 67    
Maximum Humidity 87    
Minimum Humidity 44    
Precipitation  
Precipitation 0.02 in - - ()
Sea Level Pressure  
Sea Level Pressure 29.93 in    
Wind  
Wind Speed 12 mph ()    
Max Wind Speed 21 mph    
Max Gust Speed 32 mph    
Visibility 7.3 miles    
Events      
Averages and records for this station are not official NWS values.
T = Trace of Precipitation, MM = Missing Value Source: Averaged Metar Reports

Daily Weather History Graph

Daily Weather History Graph

Search for Another Location

Airport:

Trip Planner

Search our weather history database for the weather conditions in past years. The results will help you decide how hot, cold, wet, or windy it might be!

Date:

Astronomy

Aug. 14, 2013 Rise Set
Actual Time 7:10 AM SAST 6:00 PM SAST
Civil Twilight 6:44 AM SAST 6:25 PM SAST
Nautical Twilight 6:15 AM SAST 6:55 PM SAST
Astronomical Twilight 5:46 AM SAST 7:24 PM SAST
Moon 11:26 AM SAST (8/14) 12:34 AM SAST (8/14)
Length of Visible Light 11h 41m
Length of Day
10h 49m
Waxing Crescent, 50% of the Moon is Illuminated
Aug 14
Waxing Crescent
Aug 14
First Quarter
Aug 21
Full
Aug 28
Last Quarter
Sep 5
New

Hourly Weather History & Observations

Time (SAST) Temp. Windchill Dew Point Humidity Pressure Visibility Wind Dir Wind Speed Gust Speed Precip Events Conditions
12:00 AM 50.0 °F - 39.2 °F 66% 29.83 in 6.2 mi WNW 9.2 mph - N/A   Mostly Cloudy
1:00 AM 50.0 °F - 37.4 °F 62% 29.83 in 6.2 mi West 11.5 mph - N/A   Partly Cloudy
2:00 AM 53 °F - 38 °F 45% 29.86 in 31 mi WNW 17.3 mph - -  
2:00 AM 51.8 °F - 37.4 °F 58% 29.83 in 6.2 mi WNW 17.3 mph - N/A   Mostly Cloudy
3:00 AM 51.8 °F - 37.4 °F 58% 29.83 in - WNW 17.3 mph - N/A   Clear
4:00 AM 50.0 °F - 37.4 °F 62% 29.83 in 6.2 mi West 15.0 mph - N/A   Partly Cloudy
5:00 AM 48 °F - 38 °F 60% 29.87 in 12 mi WSW 11.5 mph - -   Partly Cloudy
5:00 AM 48.2 °F - 39.2 °F 71% 29.86 in 6.2 mi WSW 11.5 mph - N/A   Scattered Clouds
6:00 AM 48.2 °F - 39.2 °F 71% 29.89 in 6.2 mi WSW 12.7 mph - N/A   Mostly Cloudy
7:00 AM 48.2 °F - 41.0 °F 76% 29.89 in 6.2 mi West 15.0 mph - N/A   Mostly Cloudy
8:00 AM 48 °F - 42 °F 71% 29.94 in 12 mi West 11.5 mph - -   Mostly Cloudy
8:00 AM 48.2 °F - 41.0 °F 76% 29.92 in 6.2 mi West 11.5 mph - N/A   Mostly Cloudy
9:00 AM 48.2 °F - 42.8 °F 82% 29.95 in 6.2 mi West 13.8 mph - N/A   Light Drizzle
10:00 AM 51.8 °F - 44.6 °F 76% 29.95 in 6.2 mi WSW 11.5 mph - N/A   Mostly Cloudy
11:00 AM 55 °F - 41 °F 49% 29.98 in 12 mi WNW 20.7 mph - -   Mostly Cloudy
11:00 AM 55.4 °F - 41.0 °F 58% 29.98 in 6.2 mi WNW 20.7 mph 32.2 mph N/A   Mostly Cloudy
12:00 PM 55.4 °F - 42.8 °F 63% 29.98 in 6.2 mi WNW 19.6 mph - N/A   Light Drizzle
1:00 PM 55.4 °F - 46.4 °F 72% 29.95 in 6.2 mi West 16.1 mph - N/A   Mostly Cloudy
2:00 PM 59 °F - 43 °F 44% 29.96 in 12 mi West 18.4 mph - -   Mostly Cloudy
2:00 PM 59.0 °F - 42.8 °F 55% 29.95 in 6.2 mi West 17.3 mph - N/A   Mostly Cloudy
3:00 PM 55.4 °F - 44.6 °F 67% 29.95 in 6.2 mi SW 16.1 mph - N/A   Mostly Cloudy
4:00 PM 55.4 °F - 44.6 °F 67% 29.95 in 6.2 mi WSW 11.5 mph - N/A   Scattered Clouds
5:00 PM 54 °F - 44 °F 60% 29.98 in 12 mi WSW 9.2 mph - -   Mostly Cloudy
5:00 PM 55.4 °F - 44.6 °F 67% 29.98 in 6.2 mi WSW 9.2 mph - N/A   Mostly Cloudy
6:00 PM 51.8 °F - 44.6 °F 76% 29.98 in 6.2 mi West 5.8 mph - N/A   Scattered Clouds
7:00 PM 50.0 °F - 42.8 °F 76% 29.98 in 6.2 mi WSW 6.9 mph - N/A   Scattered Clouds
8:00 PM 48.2 °F - 42.8 °F 82% 30.01 in 6.2 mi NW 3.5 mph - N/A   Scattered Clouds
9:00 PM 46.4 °F 42.9 °F 42.8 °F 87% 30.01 in 6.2 mi WNW 6.9 mph - N/A   Partly Cloudy
10:00 PM 48.2 °F - 42.8 °F 82% 30.01 in - NW 6.9 mph - N/A   Clear
11:00 PM 46.4 °F 44.3 °F 41.0 °F 81% 30.01 in - NW 4.6 mph - N/A   Clear